Tracking 18785 objects as of 23-July-2017
HD Live streaming from Space Station
objects crossing your sky now
MAYAK may become the brightest orbital object in the night sky!
Where is MAYAK now?
How to spot MAYAK

OPS 9433 (DSCS 2-3)

Track OPS 9433 (DSCS 2-3) now!
OPS 9433 (DSCS 2-3) is classified as:


NORAD ID: 6973
Int'l Code: 1973-100A
Perigee: 36,412.5 km
Apogee: 36,673.7 km
Inclination: 12.7 °
Period: 1,474.5 minutes
Semi major axis: 42914 km
RCS: 5.3322 m2 (large)
Launch date: December 13, 1973
Source: United States (US)
Launch site: AIR FORCE EASTERN TEST RANGE (AFETR)
Your satellite tracking list
Your tracking list is empty





NASA's NSSDC Master Catalog

Two Line Element Set (TLE):
1  6973U 73100A   17203.64071324 -.00000196 +00000-0 +00000-0 0  9993
2  6973 012.7365 316.5292 0030431 147.9252 224.9999 00.97656970088133
Source of the keplerian elements: AFSPC